Home   Weather   Itzehoe   Past weeks

Flag for Germany Past Weather in Itzehoe, Schleswig-Holstein, Germany — Yesterday and Last 2 Weeks

48 °F


Feels Like: 45 °F
Forecast: 41 / 52 °F
Wind: 7 mph from East

Location: Hohn

Current Time: Oct 24, 2016 at 2:32:32 PM

Latest Report: Oct 24, 2016 at 1:20 PM

Visibility: 3 mi

Pressure: 30.07 "Hg

Humidity: 87%

Dew Point: 45 °F

Location of ItzehoeLocation

Past Weather in Itzehoe — Graph


Itzehoe Temperature Yesterday

Maximum temperature yesterday: 48 °F (at 2:20 PM)
Minimum temperature yesterday: 39 °F (at 6:20 AM)
Average temperature yesterday: 43 °F

High & Low Weather Summary for the Past Weeks

High57 °F (Oct 18, 2:20 PM)100% (Oct 9, 9:20 PM)30.30 "Hg (Oct 9, 9:20 PM)
Low34 °F (Oct 24, 6:20 AM)66% (Oct 13, 8:20 PM)29.86 "Hg (Oct 15, 4:20 AM)
Average47 °F91%30.07 "Hg
* Reported Oct 9 1:20 PM — Oct 24 1:20 PM, Itzehoe, Weather by CustomWeather, © 2016

Note: Actual official high and low records may vary slightly from our data, if they occured in-between our weather recording intervals... More about our weather records


Itzehoe Weather History for the Previous 24 Hours

Scroll right to see more
Time TempWeatherWind HumidityBarometerVisibility
1:20 PM
Mon, Oct 24
48 °FFog.7 mph87%30.07 "Hg3 mi
12:45 PM48 °FFog.8 mph87%30.07 "Hg3 mi
12:20 PM48 °FFog.10 mph87%30.07 "Hg3 mi
11:20 AM46 °FScattered clouds.7 mph93%30.07 "Hg4 mi
11:02 AM45 °FFog.6 mph100%30.07 "Hg3 mi
10:20 AM41 °FFog.2 mph100%30.07 "Hg2 mi
10:00 AM36 °FFog.3 mph100%30.07 "Hg1 mi
9:20 AM34 °FFog.2 mph100%30.07 "Hg0 mi
8:20 AM34 °FFog.2 mph100%30.07 "Hg0 mi
7:20 AM34 °FFog.1 mph100%30.07 "Hg1 mi
6:20 AM34 °FFog.5 mph100%30.04 "Hg1 mi
5:20 AM36 °FFog.2 mph100%30.04 "Hg1 mi
5:00 AM37 °FFog.3 mph93%30.04 "Hg1 mi
4:20 AM37 °FChilly.3 mph100%30.04 "Hg1 mi
3:20 AM39 °FChilly.3 mph100%30.04 "Hg0 mi
2:20 AM39 °FChilly.6 mph93%30.04 "Hg0 mi
1:20 AM39 °FChilly.3 mph93%30.04 "Hg0 mi
12:20 AM41 °FQuite cool.5 mph93%30.04 "Hg0 mi
11:20 PM
Sun, Oct 23
41 °FQuite cool.5 mph100%30.04 "Hg0 mi
10:20 PM43 °FQuite cool.5 mph93%30.04 "Hg1 mi
9:20 PM45 °FQuite cool.3 mph93%30.01 "Hg2 mi
8:20 PM45 °FQuite cool.6 mph93%30.01 "Hg3 mi
7:20 PM45 °FQuite cool.6 mph93%30.01 "Hg3 mi
6:20 PM46 °FCool.5 mph93%29.98 "Hg2 mi
5:20 PM46 °FCool.3 mph93%29.98 "Hg2 mi
4:20 PM46 °FCool.5 mph93%29.98 "Hg2 mi
3:20 PM48 °FCool.5 mph87%29.98 "Hg3 mi
2:20 PM48 °FCool.3 mph87%29.98 "Hg2 mi
Weather by CustomWeather, © 2016

See weather overviewHow to use our weather pages